Погода в Питере

Россия / Костромская область     59°16′51″N   46°34′12″E
темп.,
°C
ветер,
м/с
пор.,
м/с
влажн.,
%
обл.,
%
осадки,
мм/ч
давл.,
гПа
погр.,
м
26 января, вт
вт2600:000ююз41096100 0.0 1019625
03:00−1ююз4996100 0.0 1020613
06:00−2ююз3894100 0.0 1019481
09:00−2ю3892100 0.1 1019598
12:00−2ю3792100 0.1 1019648
15:00−2ююв3795100 0.1 1018441
18:00−2ююв399699 0.2 1018396
21:000ююв41096100 0.3 1016462
27 января, ср
ср2700:000ю41094100 0.1 1016583
03:00−2ю41095100 0.3 1016632
06:00−2ююв41095100 0.2 1015485
09:00−1ююв51195100 0.3 1013739
12:00−1ю61496100 1.9 1011814
15:000ю61397100 3.5 1009887
18:00+1ю61399100 0.9 1008733
21:00+1ююз41299100 2.9 1007702
28 января, чт
чт2800:000юз41391100 0.5 10071004
03:00−4юз31093100 0.5 1008356
06:00−6зюз389674 0.0 1010226
09:00−6юз249678 0.0 1012124
12:00−3юз239389 0.0 1013163
15:00−5ююз129663 0.0 101521
18:00−8юв119635 0.0 101621
21:00−8вюв129566 0.0 101621
29 января, пт
пт2900:00−8в2496100 0.0 101695
03:00−6в2497100 0.0 1016153
06:00−4в3697100 0.1 1015254
09:00−4вюв3896100 0.4 1014443
12:00−4вюв4893100 0.3 1013462
15:00−6вюв499399 0.3 1012420
18:00−8в4109499 0.0 1010410
21:00−9в41195100 0.0 1009417
30 января, сб
сб3000:00−8в41094100 0.0 1007438
03:00−8в41193100 0.1 1005490
06:00−7вюв51294100 0.3 1003691
09:00−6вюв51293100 0.9 1002735
12:00−4юв51092100 0.4 1003771
15:00−4юв51093100 0.6 1003729
18:00−4юв41194100 0.2 1003832
21:00−4юв51392100 0.5 1002745